Powrót do katalogu

CZ-3A DEB

LostGTO
NORAD 35550·DEBRIS·🇨🇳 China

Wystrzelony Feb 2, 2007 z Xichang Satellite Launch Center

Loading…

TLE

NieaktualneSource: Space-Track

Epoka: Jun 14, 2026, 03:44 UTC

1 35550U 07003J   26165.15615752 -.00000396  00000-0  51042-3 0  9994
2 35550  24.6235  15.9389 7370552 289.2126   8.9979  2.09212561130202

Śledź CZ-3A DEB w czasie rzeczywistym z AllMySat

Download on the App Store